Flag for Canada Weather past 2 weeks in Sarnia, Ontario, Canada

Now
52 °F

Passing clouds.


Feels Like: 51 °F
Forecast: 50 / 77 °F
Wind: 5 mph from South

Location: Sarnia Airport

Current Time: Jul 25, 2014 at 7:58:44 AM

Latest Report: Jul 25, 2014 at 7:00 AM


Visibility: 9 mi

Pressure: 30.08 "Hg

Humidity: 88%

Dew point: 48 °F

Location of SarniaLocation

Historic Weather in Sarnia — Graph

°F

Sarnia temperature yesterday

Maximum temperature yesterday: 70 °F (at 4:00 PM)
Minimum temperature yesterday: 57 °F (at 11:00 PM)
Average temperature yesterday: 64 °F

Past Weeks' High & Low Weather Summary

 TemperatureHumidityPressure
High84 °F (Jul 22, 1:00 PM)100% (Jul 11, 5:00 AM)30.26 "Hg (Jul 11, 5:00 AM)
Low50 °F (Jul 25, 4:00 AM)44% (Jul 11, 7:00 PM)29.68 "Hg (Jul 15, 5:00 AM)
Average67 °F74%30.02 "Hg
* Reported Jul 10 6:00 AM — Jul 25 6:00 AM, Sarnia, Weather by CustomWeather, © 2014

Note: Actual official high and low records may vary slightly from our data, if they occured in-between our weather recording intervals... More about our weather records

Advertising

Sarnia weather history for July 14, 2014

 ConditionsComfort  
Time TempWeatherWind HumidityBarometerVisibility
12:00 AM
Jul 14
66 °FPassing clouds.8 mph83%29.89 "Hg9 mi
1:00 AM64 °FPassing clouds.3 mph88%29.88 "Hg9 mi
2:00 AM63 °FClear.5 mph88%29.88 "Hg9 mi
3:00 AM63 °FClear.5 mph88%29.87 "Hg9 mi
4:00 AM63 °FClear.3 mph88%29.87 "Hg9 mi
5:00 AM63 °FMostly cloudy.5 mph83%29.86 "Hg9 mi
6:00 AM63 °FMostly cloudy.8 mph77%29.87 "Hg9 mi
7:00 AM63 °FLight rain. Mostly cloudy.8 mph88%29.86 "Hg9 mi
8:00 AM64 °FScattered clouds.9 mph88%29.85 "Hg9 mi
9:00 AM66 °FBroken clouds.8 mph78%29.85 "Hg9 mi
10:00 AM70 °FPassing clouds.6 mph73%29.84 "Hg9 mi
11:00 AM72 °FScattered clouds.7 mph73%29.83 "Hg9 mi
12:00 PM75 °FBroken clouds.7 mph69%29.84 "Hg9 mi
1:00 PM75 °FScattered clouds.5 mph69%29.83 "Hg9 mi
2:00 PM77 °FSunny.9 mph57%29.81 "Hg9 mi
3:00 PM75 °FPassing clouds.7 mph69%29.80 "Hg9 mi
4:00 PM73 °FOvercast.6 mph74%29.80 "Hg9 mi
5:00 PM73 °FPartly sunny.6 mph74%29.81 "Hg9 mi
6:00 PM73 °FPartly sunny.3 mph61%29.80 "Hg9 mi
7:00 PM73 °FOvercast.2 mph61%29.79 "Hg9 mi
8:00 PM72 °FPartly sunny.5 mph69%29.78 "Hg9 mi
9:00 PM70 °FMostly cloudy.No wind73%29.78 "Hg9 mi
9:52 PM70 °FLight rain. More clouds than sun.2 mph78%29.78 "Hg9 mi
10:00 PM70 °FLight rain. Overcast.2 mph73%29.78 "Hg9 mi
11:00 PM68 °FMostly cloudy.No wind78%29.76 "Hg9 mi
Weather by CustomWeather, © 2014

See weather overviewHow to use our weather pages